Shenandoah, IA

8:56 AM CST on February 19, 2017 (GMT -0600)
Shenandoah Municipal

Weather History for KSDA - February, 2014

Change the Weather History Date:

Saturday, February 1, 2014

  Actual Average Record
Temperature  
Mean Temperature 19 °F -  
Max Temperature 26 °F 37 °F 70 °F (1989)
Min Temperature 12 °F 14 °F -24 °F (1979)
Degree Days  
Heating Degree Days 46    
Moisture  
Dew Point 15 °F    
Average Humidity 79    
Maximum Humidity 93    
Minimum Humidity 67    
Precipitation  
Precipitation 0.00 in - - ()
Sea Level Pressure  
Sea Level Pressure 30.07 in    
Wind  
Wind Speed 8 mph (North)    
Max Wind Speed 17 mph    
Max Gust Speed 22 mph    
Visibility 9 miles    
Events Rain , Snow    
Averages and records for this station are not official NWS values.
T = Trace of Precipitation, MM = Missing Value Source: NWS Daily Summary

Daily Weather History Graph

Daily Weather History Graph

Search for Another Location

Airport or City:

Trip Planner

Search our weather history database for the weather conditions in past years. The results will help you decide how hot, cold, wet, or windy it might be!

Date:

Astronomy

Feb. 01, 2014 Rise Set
Actual Time 7:31 AM CST 5:39 PM CST
Civil Twilight 7:02 AM CST 6:08 PM CST
Nautical Twilight 6:29 AM CST 6:41 PM CST
Astronomical Twilight 5:57 AM CST 7:13 PM CST
Moon 8:20 AM CST (2/1) 8:16 PM CST (2/1)
Length of Visible Light 11h 05m
Length of Day
10h 07m
Waxing Crescent, 5% of the Moon is Illuminated
Feb 1
Waxing Crescent
Feb 6
First Quarter
Feb 14
Full
Feb 22
Last Quarter
Mar 1
New

Hourly Weather History & Observations

Time (CST) Temp. Windchill Dew Point Humidity Pressure Visibility Wind Dir Wind Speed Gust Speed Precip Events Conditions
12:15 AM 19.4 °F 11.5 °F 15.8 °F 86% 29.98 in 1.8 mi NE 5.8 mph - N/A Snow Light Snow
12:35 AM 19.4 °F 10.4 °F 17.6 °F 93% 29.97 in 2.5 mi NE 6.9 mph - N/A Snow Light Snow
12:55 AM 19.4 °F 10.4 °F 17.6 °F 93% 29.97 in 1.5 mi NE 6.9 mph - N/A Snow Light Snow
1:15 AM 19.4 °F 10.4 °F 17.6 °F 93% 29.96 in 2.5 mi NNE 6.9 mph - N/A Snow Light Snow
1:35 AM 19.4 °F 8.6 °F 15.8 °F 86% 29.95 in 4.0 mi NNE 9.2 mph - N/A Snow Light Snow
1:55 AM 19.4 °F 10.4 °F 15.8 °F 86% 29.95 in 8.0 mi NE 6.9 mph - N/A Snow Light Snow
2:15 AM 19.4 °F 9.5 °F 15.8 °F 86% 29.95 in 2.5 mi NNE 8.1 mph - N/A Snow Light Snow
2:35 AM 19.4 °F 11.5 °F 15.8 °F 86% 29.95 in 3.0 mi NE 5.8 mph - N/A Snow Light Snow
2:55 AM 19.4 °F 8.6 °F 15.8 °F 86% 29.92 in 10.0 mi NE 9.2 mph - N/A Rain Light Freezing Rain
3:15 AM 19.4 °F 12.8 °F 15.8 °F 86% 29.95 in 10.0 mi NNE 4.6 mph - N/A Snow Light Snow
3:35 AM 19.4 °F 8.6 °F 15.8 °F 86% 29.94 in 10.0 mi NE 9.2 mph - N/A Snow Light Snow
3:55 AM 19.4 °F 10.4 °F 15.8 °F 86% 29.92 in 10.0 mi NE 6.9 mph - N/A Snow Light Snow
4:15 AM 19.4 °F 10.4 °F 15.8 °F 86% 29.94 in 10.0 mi NE 6.9 mph - N/A Snow Light Snow
4:35 AM 19.4 °F 11.5 °F 15.8 °F 86% 29.94 in 10.0 mi NNE 5.8 mph - N/A   Overcast
4:55 AM 19.4 °F 9.5 °F 15.8 °F 86% 29.94 in 10.0 mi NE 8.1 mph - N/A   Overcast
5:15 AM 19.4 °F 10.4 °F 15.8 °F 86% 29.93 in 10.0 mi NE 6.9 mph - N/A   Overcast
5:35 AM 19.4 °F 10.4 °F 15.8 °F 86% 29.93 in 10.0 mi NNE 6.9 mph - N/A   Overcast
5:55 AM 19.4 °F 10.4 °F 15.8 °F 86% 29.93 in 10.0 mi NNE 6.9 mph - N/A   Overcast
6:15 AM 19.4 °F 11.5 °F 15.8 °F 86% 29.94 in 10.0 mi NE 5.8 mph - N/A   Overcast
6:35 AM 19.4 °F 10.4 °F 15.8 °F 86% 29.95 in 10.0 mi NNE 6.9 mph - N/A   Overcast
6:55 AM 19.4 °F 12.8 °F 15.8 °F 86% 29.95 in 10.0 mi NNE 4.6 mph - N/A   Overcast
7:15 AM 19.4 °F 12.8 °F 15.8 °F 86% 29.95 in 10.0 mi North 4.6 mph - N/A   Overcast
7:35 AM 19.4 °F 12.8 °F 15.8 °F 86% 29.96 in 10.0 mi North 4.6 mph - N/A   Overcast
7:55 AM 17.6 °F 10.7 °F 14.0 °F 86% 29.97 in 10.0 mi North 4.6 mph - N/A   Overcast
8:15 AM 17.6 °F - 14.0 °F 86% 29.99 in 10.0 mi Calm Calm - N/A   Overcast
8:35 AM 17.6 °F - 14.0 °F 86% 29.99 in 10.0 mi Calm Calm - N/A   Overcast
8:55 AM 19.4 °F 14.3 °F 15.8 °F 86% 29.99 in 10.0 mi North 3.5 mph - N/A   Overcast
9:15 AM 19.4 °F 11.5 °F 15.8 °F 86% 30.00 in 10.0 mi NNW 5.8 mph - N/A   Overcast
9:35 AM 19.4 °F 11.5 °F 15.8 °F 86% 30.01 in 10.0 mi NNW 5.8 mph - N/A Snow Light Snow
9:55 AM 19.4 °F 10.4 °F 15.8 °F 86% 30.02 in 10.0 mi NNW 6.9 mph - N/A   Partly Cloudy
10:15 AM 21.2 °F 11.7 °F 15.8 °F 80% 30.02 in 10.0 mi NNW 8.1 mph - N/A Snow Light Snow
10:35 AM 21.2 °F 12.6 °F 17.6 °F 86% 30.02 in 10.0 mi NNW 6.9 mph - N/A   Clear
10:55 AM 23.0 °F 13.9 °F 17.6 °F 80% 30.02 in 10.0 mi NNW 8.1 mph - N/A   Clear
11:15 AM 24.8 °F 16.9 °F 19.4 °F 80% 30.03 in 10.0 mi NNW 6.9 mph - N/A   Clear
11:35 AM 24.8 °F 13.4 °F 19.4 °F 80% 30.03 in 10.0 mi NNW 12.7 mph - N/A   Mostly Cloudy
11:55 AM 24.8 °F 12.9 °F 19.4 °F 80% 30.03 in 10.0 mi NNW 13.8 mph - N/A   Overcast
12:15 PM 26.6 °F 15.2 °F 21.2 °F 80% 30.04 in 10.0 mi NNW 13.8 mph 19.6 mph N/A   Overcast
12:35 PM 26.6 °F 14.7 °F 21.2 °F 80% 30.04 in 10.0 mi NNW 15.0 mph - N/A   Overcast
12:55 PM 26.6 °F 15.2 °F 21.2 °F 80% 30.04 in 10.0 mi North 13.8 mph - N/A   Overcast
1:15 PM 26.6 °F 16.2 °F 21.2 °F 80% 30.04 in 10.0 mi North 11.5 mph 17.3 mph N/A   Overcast
1:35 PM 26.6 °F 15.7 °F 21.2 °F 80% 30.04 in 10.0 mi NNW 12.7 mph - N/A   Overcast
1:55 PM 26.6 °F 14.7 °F 21.2 °F 80% 30.04 in 10.0 mi North 15.0 mph - N/A   Overcast
2:15 PM 26.6 °F 13.8 °F 19.4 °F 74% 30.04 in 10.0 mi NNW 17.3 mph - N/A   Overcast
2:35 PM 26.6 °F 15.2 °F 19.4 °F 74% 30.04 in 10.0 mi NNW 13.8 mph 20.7 mph N/A   Overcast
2:55 PM 26.6 °F 13.8 °F 19.4 °F 74% 30.04 in 10.0 mi North 17.3 mph - N/A   Overcast
3:15 PM 26.6 °F 14.7 °F 17.6 °F 69% 30.05 in 10.0 mi NNW 15.0 mph - N/A   Overcast
3:35 PM 26.6 °F 15.2 °F 17.6 °F 69% 30.06 in 10.0 mi North 13.8 mph 19.6 mph N/A   Scattered Clouds
3:55 PM 26.6 °F 13.8 °F 17.6 °F 69% 30.07 in 10.0 mi North 17.3 mph - N/A   Partly Cloudy
4:15 PM 24.8 °F 13.4 °F 15.8 °F 69% 30.08 in 10.0 mi North 12.7 mph 20.7 mph N/A   Scattered Clouds
4:35 PM 24.8 °F 15.3 °F 15.8 °F 69% 30.10 in 10.0 mi NNW 9.2 mph 16.1 mph N/A   Mostly Cloudy
4:55 PM 24.8 °F 12.4 °F 15.8 °F 69% 30.12 in 10.0 mi NNW 15.0 mph - N/A   Overcast
5:15 PM 23.0 °F 10.6 °F 14.0 °F 68% 30.12 in 10.0 mi NNW 13.8 mph 21.9 mph N/A   Overcast
5:35 PM 21.2 °F 10.1 °F 14.0 °F 74% 30.14 in 10.0 mi NNW 10.4 mph 16.1 mph N/A   Scattered Clouds
5:55 PM 21.2 °F 11.7 °F 14.0 °F 74% 30.16 in 10.0 mi North 8.1 mph - N/A   Clear
6:15 PM 19.4 °F 10.4 °F 12.2 °F 74% 30.17 in 10.0 mi North 6.9 mph - N/A   Clear
6:35 PM 19.4 °F 9.5 °F 12.2 °F 74% 30.19 in 10.0 mi North 8.1 mph - N/A   Partly Cloudy
6:55 PM 19.4 °F 11.5 °F 12.2 °F 74% 30.20 in 10.0 mi North 5.8 mph - N/A   Clear
7:15 PM 17.6 °F 8.2 °F 12.2 °F 79% 30.21 in 10.0 mi North 6.9 mph - N/A   Scattered Clouds
7:35 PM 19.4 °F 7.9 °F 10.4 °F 68% 30.23 in 10.0 mi North 10.4 mph - N/A   Mostly Cloudy
7:55 PM 17.6 °F 6.4 °F 10.4 °F 73% 30.24 in 10.0 mi North 9.2 mph - N/A   Mostly Cloudy
8:15 PM 17.6 °F 4.3 °F 10.4 °F 73% 30.25 in 10.0 mi North 12.7 mph - N/A   Overcast
8:35 PM 17.6 °F 7.3 °F 10.4 °F 73% 30.26 in 10.0 mi North 8.1 mph 15.0 mph N/A   Overcast
8:55 PM 17.6 °F 5.0 °F 8.6 °F 68% 30.26 in 10.0 mi North 11.5 mph 17.3 mph N/A   Overcast
9:15 PM 15.8 °F 4.2 °F 8.6 °F 73% 30.27 in 10.0 mi North 9.2 mph - N/A   Overcast
9:35 PM 15.8 °F 3.4 °F 6.8 °F 68% 30.28 in 10.0 mi North 10.4 mph - N/A   Overcast
9:55 PM 14.0 °F -0.2 °F 5.0 °F 67% 30.28 in 10.0 mi North 12.7 mph - N/A   Overcast
10:15 PM 14.0 °F 2.9 °F 6.8 °F 73% 30.29 in 10.0 mi North 8.1 mph - N/A   Overcast
10:35 PM 14.0 °F -0.2 °F 6.8 °F 73% 30.30 in 10.0 mi North 12.7 mph - N/A   Overcast
10:55 PM 14.0 °F 2.0 °F 6.8 °F 73% 30.31 in 10.0 mi North 9.2 mph 16.1 mph N/A   Overcast
11:15 PM 14.0 °F 2.9 °F 5.0 °F 67% 30.31 in 10.0 mi North 8.1 mph 17.3 mph N/A   Overcast
11:35 PM 12.2 °F 2.9 °F 5.0 °F 73% 30.32 in 10.0 mi North 5.8 mph - N/A   Partly Cloudy
11:55 PM 12.2 °F 4.3 °F 5.0 °F 73% 30.32 in 10.0 mi North 4.6 mph - N/A   Clear